Prescott, AZ

7:32 PM MST on November 19, 2017 (GMT -0700)
Love

Weather History for KPRC - September, 2012

Change the Weather History Date:

Thursday, September 6, 2012

  Actual Average Record
Temperature  
Mean Temperature 74 °F 71 °F  
Max Temperature 86 °F 85 °F 95 °F (1955)
Min Temperature 61 °F 57 °F 46 °F (1970)
Degree Days  
Heating Degree Days 0    
Month to date heating degree days  
Since 1 July heating degree days  
Cooling Degree Days 8    
Month to date cooling degree days  
Year to date cooling degree days  
Growing Degree Days 24 (Base 50)    
Moisture  
Dew Point 56 °F    
Average Humidity 54    
Maximum Humidity 78    
Minimum Humidity 35    
Precipitation  
Precipitation 0.00 in 0.05 in 0.87 in (1950)
Month to date precipitation 0.36  
Year to date precipitation 10.02  
Sea Level Pressure  
Sea Level Pressure 29.91 in    
Wind  
Wind Speed 5 mph (SSW)    
Max Wind Speed 13 mph    
Max Gust Speed -    
Visibility 10 miles    
Events      
T = Trace of Precipitation, MM = Missing Value Source: NWS Daily Summary

Daily Weather History Graph

Daily Weather History Graph

Search for Another Location

Airport or City:

Trip Planner

Search our weather history database for the weather conditions in past years. The results will help you decide how hot, cold, wet, or windy it might be!

Date:

Astronomy

Sep. 06, 2012 Rise Set
Actual Time 6:06 AM MST 6:48 PM MST
Civil Twilight 5:41 AM MST 7:13 PM MST
Nautical Twilight 5:11 AM MST 7:43 PM MST
Astronomical Twilight 4:40 AM MST 8:14 PM MST
Moon 10:18 PM MST (9/6) 11:52 AM MST (9/6)
Length of Visible Light 13h 32m
Length of Day
12h 41m
Waning Gibbous, 66% of the Moon is Illuminated
Sep 6
Waning Gibbous
Sep 8
Last Quarter
Sep 15
New
Sep 22
First Quarter
Sep 29
Full

Hourly Weather History & Observations

Time (MST) Temp. Heat Index Dew Point Humidity Pressure Visibility Wind Dir Wind Speed Gust Speed Precip Events Conditions
12:53 AM 66.0 °F - 55.9 °F 70% 29.89 in 10.0 mi SSW 5.8 mph - N/A   Clear
1:53 AM 64.0 °F - 55.9 °F 75% 29.88 in 10.0 mi South 5.8 mph - N/A   Clear
2:53 AM 63.0 °F - 55.0 °F 75% 29.88 in 10.0 mi South 5.8 mph - N/A   Clear
3:53 AM 62.1 °F - 55.0 °F 78% 29.88 in 10.0 mi South 5.8 mph - N/A   Clear
4:53 AM 64.0 °F - 53.1 °F 67% 29.89 in 10.0 mi South 5.8 mph - N/A   Clear
5:53 AM 61.0 °F - 54.0 °F 78% 29.91 in 10.0 mi South 4.6 mph - N/A   Clear
6:53 AM 64.0 °F - 55.0 °F 73% 29.93 in 10.0 mi South 3.5 mph - N/A   Clear
7:53 AM 70.0 °F - 55.9 °F 61% 29.93 in 10.0 mi Calm Calm - N/A   Clear
8:53 AM 75.0 °F - 57.0 °F 53% 29.94 in 10.0 mi Calm Calm - N/A   Clear
9:53 AM 80.1 °F 80.0 °F 54.0 °F 40% 29.94 in 10.0 mi North 3.5 mph - N/A   Partly Cloudy
10:53 AM 82.0 °F 81.3 °F 54.0 °F 38% 29.92 in 10.0 mi Calm Calm - N/A   Clear
11:53 AM 84.0 °F 82.9 °F 55.0 °F 37% 29.91 in 10.0 mi Variable 4.6 mph - N/A   Scattered Clouds
12:53 PM 84.0 °F 82.9 °F 55.0 °F 37% 29.91 in 10.0 mi West 9.2 mph - N/A   Mostly Cloudy
1:53 PM 86.0 °F 84.5 °F 55.0 °F 35% 29.88 in 10.0 mi Variable 4.6 mph - N/A   Mostly Cloudy
2:53 PM 86.0 °F 84.7 °F 55.9 °F 36% 29.86 in 10.0 mi SW 9.2 mph - N/A   Mostly Cloudy
3:53 PM 84.0 °F 83.0 °F 55.9 °F 38% 29.85 in 10.0 mi WSW 12.7 mph - N/A   Scattered Clouds
4:53 PM 84.0 °F 82.9 °F 55.0 °F 37% 29.86 in 10.0 mi West 4.6 mph - N/A   Scattered Clouds
5:53 PM 82.0 °F 81.6 °F 55.9 °F 41% 29.86 in 10.0 mi WSW 11.5 mph - N/A   Scattered Clouds
6:53 PM 79.0 °F - 57.0 °F 47% 29.89 in 10.0 mi SW 8.1 mph - N/A   Scattered Clouds
7:53 PM 77.0 °F - 57.2 °F 50% 30.13 in 10.0 mi SW 5.8 mph - N/A   Clear
8:53 PM 75.0 °F - 57.9 °F 55% 29.91 in 10.0 mi Calm Calm - N/A   Clear
9:53 PM 73.9 °F - 57.0 °F 55% 29.90 in 10.0 mi SSW 6.9 mph - N/A   Clear
10:53 PM 72.0 °F - 59.0 °F 64% 29.91 in 10.0 mi SSW 6.9 mph - N/A   Mostly Cloudy
11:53 PM 72.0 °F - 59.0 °F 64% 29.90 in 10.0 mi SSE 4.6 mph - N/A   Clear